Time,TemperatureF,DewpointF,PressureIn,WindDirection,WindDirectionDegrees,WindSpeedMPH,WindSpeedGustMPH,Humidity,HourlyPrecipIn,Conditions,Clouds,dailyrainin,SoftwareType,DateUTC
2013-03-14 00:04:00,45.6,40.0,30.37,East,86,0.0,0.0,80,0.00,,,0.00,weatherlink.com 1.10,2013-03-14 05:04:00,
2013-03-14 00:19:00,45.0,40.0,30.37,East,86,0.0,0.0,81,0.00,,,0.00,weatherlink.com 1.10,2013-03-14 05:19:00,
2013-03-14 00:34:00,44.7,40.0,30.37,East,86,0.0,0.0,84,0.00,,,0.00,weatherlink.com 1.10,2013-03-14 05:34:00,
2013-03-14 00:49:00,44.5,40.0,30.37,East,86,0.0,0.0,84,0.00,,,0.00,weatherlink.com 1.10,2013-03-14 05:49:00,
2013-03-14 01:04:00,43.5,39.0,30.36,East,86,0.0,0.0,84,0.00,,,0.00,weatherlink.com 1.10,2013-03-14 06:04:00,
2013-03-14 01:19:00,43.4,40.0,30.37,East,86,0.0,0.0,86,0.00,,,0.00,weatherlink.com 1.10,2013-03-14 06:19:00,
2013-03-14 01:34:00,43.7,40.0,30.36,East,86,0.0,0.0,86,0.00,,,0.00,weatherlink.com 1.10,2013-03-14 06:34:00,
2013-03-14 01:49:00,45.3,41.0,30.37,East,86,0.0,0.0,84,0.00,,,0.00,weatherlink.com 1.10,2013-03-14 06:49:00,
2013-03-14 02:04:00,46.1,41.0,30.37,East,86,0.0,1.0,81,0.00,,,0.00,weatherlink.com 1.10,2013-03-14 07:04:00,
2013-03-14 02:19:00,47.3,40.0,30.37,East,86,0.0,1.0,76,0.00,,,0.00,weatherlink.com 1.10,2013-03-14 07:19:00,
2013-03-14 02:34:00,45.5,39.0,30.38,East,86,0.0,0.0,79,0.00,,,0.00,weatherlink.com 1.10,2013-03-14 07:34:00,
2013-03-14 02:49:00,44.6,39.0,30.38,East,86,0.0,0.0,82,0.00,,,0.00,weatherlink.com 1.10,2013-03-14 07:49:00,
2013-03-14 03:04:00,43.2,38.0,30.38,East,86,0.0,0.0,83,0.00,,,0.00,weatherlink.com 1.10,2013-03-14 08:04:00,
2013-03-14 03:20:00,42.3,38.0,30.37,East,86,0.0,0.0,86,0.00,,,0.00,weatherlink.com 1.10,2013-03-14 08:20:00,
2013-03-14 03:35:00,41.8,39.0,30.37,East,86,0.0,0.0,88,0.00,,,0.00,weatherlink.com 1.10,2013-03-14 08:35:00,
2013-03-14 03:50:00,41.5,39.0,30.37,East,86,0.0,0.0,89,0.00,,,0.00,weatherlink.com 1.10,2013-03-14 08:50:00,
2013-03-14 04:05:00,41.1,38.0,30.36,East,86,0.0,0.0,89,0.00,,,0.00,weatherlink.com 1.10,2013-03-14 09:05:00,
2013-03-14 04:20:00,40.4,38.0,30.37,East,86,0.0,0.0,90,0.00,,,0.00,weatherlink.com 1.10,2013-03-14 09:20:00,
2013-03-14 04:35:00,39.8,37.0,30.37,East,86,0.0,0.0,90,0.00,,,0.00,weatherlink.com 1.10,2013-03-14 09:35:00,
2013-03-14 04:50:00,39.8,37.0,30.36,East,86,0.0,0.0,91,0.00,,,0.00,weatherlink.com 1.10,2013-03-14 09:50:00,
2013-03-14 05:05:00,39.8,38.0,30.37,East,86,0.0,0.0,92,0.00,,,0.00,weatherlink.com 1.10,2013-03-14 10:05:00,
2013-03-14 05:20:00,39.7,37.0,30.37,East,86,0.0,0.0,91,0.00,,,0.00,weatherlink.com 1.10,2013-03-14 10:20:00,
2013-03-14 05:35:00,39.4,37.0,30.38,East,86,0.0,0.0,92,0.00,,,0.00,weatherlink.com 1.10,2013-03-14 10:35:00,
2013-03-14 05:50:00,38.4,36.0,30.38,East,86,0.0,0.0,92,0.00,,,0.00,weatherlink.com 1.10,2013-03-14 10:50:00,
2013-03-14 06:05:00,38.6,37.0,30.38,East,86,0.0,0.0,93,0.00,,,0.00,weatherlink.com 1.10,2013-03-14 11:05:00,
2013-03-14 06:20:00,38.8,37.0,30.37,East,86,0.0,0.0,92,0.00,,,0.00,weatherlink.com 1.10,2013-03-14 11:20:00,
2013-03-14 06:35:00,38.8,37.0,30.37,East,86,0.0,0.0,93,0.00,,,0.00,weatherlink.com 1.10,2013-03-14 11:35:00,
2013-03-14 06:50:00,38.8,37.0,30.37,East,86,0.0,0.0,93,0.00,,,0.00,weatherlink.com 1.10,2013-03-14 11:50:00,
2013-03-14 07:05:00,38.8,37.0,30.37,East,86,0.0,0.0,93,0.00,,,0.00,weatherlink.com 1.10,2013-03-14 12:05:00,
2013-03-14 07:20:00,38.5,37.0,30.38,East,86,0.0,0.0,93,0.00,,,0.00,weatherlink.com 1.10,2013-03-14 12:20:00,
2013-03-14 07:35:00,39.4,38.0,30.38,East,86,0.0,0.0,93,0.00,,,0.00,weatherlink.com 1.10,2013-03-14 12:35:00,
2013-03-14 07:50:00,39.4,38.0,30.39,East,86,0.0,0.0,93,0.00,,,0.00,weatherlink.com 1.10,2013-03-14 12:50:00,
2013-03-14 08:05:00,43.2,41.0,30.39,East,86,0.0,0.0,93,0.00,,,0.00,weatherlink.com 1.10,2013-03-14 13:05:00,
2013-03-14 08:20:00,45.8,42.0,30.40,East,86,0.0,0.0,87,0.00,,,0.00,weatherlink.com 1.10,2013-03-14 13:20:00,
2013-03-14 08:35:00,48.0,41.0,30.41,East,89,0.0,2.0,77,0.00,,,0.00,weatherlink.com 1.10,2013-03-14 13:35:00,
2013-03-14 08:50:00,50.0,41.0,30.41,East,80,1.0,3.0,70,0.00,,,0.00,weatherlink.com 1.10,2013-03-14 13:50:00,
2013-03-14 09:05:00,51.6,40.0,30.42,East,98,0.0,4.0,64,0.00,,,0.00,weatherlink.com 1.10,2013-03-14 14:05:00,
2013-03-14 09:20:00,53.0,37.0,30.43,East,92,2.0,9.0,56,0.00,,,0.00,weatherlink.com 1.10,2013-03-14 14:20:00,
2013-03-14 09:35:00,54.2,38.0,30.43,East,89,4.0,8.0,55,0.00,,,0.00,weatherlink.com 1.10,2013-03-14 14:35:00,
2013-03-14 09:50:00,55.4,38.0,30.44,SE,146,1.0,7.0,52,0.00,,,0.00,weatherlink.com 1.10,2013-03-14 14:50:00,
2013-03-14 10:06:00,57.0,38.0,30.44,ESE,120,3.0,6.0,50,0.00,,,0.00,weatherlink.com 1.10,2013-03-14 15:06:00,
2013-03-14 10:21:00,58.0,38.0,30.45,SE,140,2.0,8.0,47,0.00,,,0.00,weatherlink.com 1.10,2013-03-14 15:21:00,
2013-03-14 10:36:00,59.1,34.0,30.45,East,95,5.0,8.0,39,0.00,,,0.00,weatherlink.com 1.10,2013-03-14 15:36:00,
2013-03-14 11:21:00,62.6,34.0,30.44,East,94,4.0,8.0,34,0.00,,,0.00,weatherlink.com 1.10,2013-03-14 16:21:00,
2013-03-14 11:36:00,63.4,35.0,30.44,South,172,1.0,9.0,35,0.00,,,0.00,weatherlink.com 1.10,2013-03-14 16:36:00,
2013-03-14 11:51:00,63.7,35.0,30.44,East,91,6.0,9.0,35,0.00,,,0.00,weatherlink.com 1.10,2013-03-14 16:51:00,
2013-03-14 12:36:00,66.9,36.0,30.42,WSW,252,0.0,8.0,32,0.00,,,0.00,weatherlink.com 1.10,2013-03-14 17:36:00,
2013-03-14 12:51:00,67.9,34.0,30.41,East,97,2.0,7.0,29,0.00,,,0.00,weatherlink.com 1.10,2013-03-14 17:51:00,
2013-03-14 13:06:00,68.3,36.0,30.41,SE,142,2.0,7.0,31,0.00,,,0.00,weatherlink.com 1.10,2013-03-14 18:06:00,
2013-03-14 13:21:00,68.9,36.0,30.41,SE,145,7.0,9.0,30,0.00,,,0.00,weatherlink.com 1.10,2013-03-14 18:21:00,
2013-03-14 13:36:00,69.3,34.0,30.40,South,191,1.0,8.0,27,0.00,,,0.00,weatherlink.com 1.10,2013-03-14 18:36:00,
2013-03-14 13:51:00,69.9,35.0,30.39,SE,136,1.0,6.0,28,0.00,,,0.00,weatherlink.com 1.10,2013-03-14 18:51:00,
2013-03-14 14:06:00,70.8,38.0,30.38,East,101,2.0,6.0,30,0.00,,,0.00,weatherlink.com 1.10,2013-03-14 19:06:00,
2013-03-14 14:21:00,70.5,33.0,30.38,SE,127,3.0,8.0,25,0.00,,,0.00,weatherlink.com 1.10,2013-03-14 19:21:00,
2013-03-14 14:36:00,70.3,34.0,30.37,ESE,121,7.0,9.0,26,0.00,,,0.00,weatherlink.com 1.10,2013-03-14 19:36:00,
2013-03-14 14:51:00,70.3,36.0,30.36,SSE,151,6.0,11.0,28,0.00,,,0.00,weatherlink.com 1.10,2013-03-14 19:51:00,
2013-03-14 15:06:00,70.2,43.0,30.35,WNW,287,3.0,8.0,37,0.00,,,0.00,weatherlink.com 1.10,2013-03-14 20:06:00,
2013-03-14 15:21:00,69.3,44.0,30.35,ESE,115,4.0,8.0,41,0.00,,,0.00,weatherlink.com 1.10,2013-03-14 20:21:00,
2013-03-14 15:36:00,70.1,45.0,30.34,SW,214,2.0,7.0,41,0.00,,,0.00,weatherlink.com 1.10,2013-03-14 20:36:00,
2013-03-14 15:51:00,69.6,45.0,30.34,South,181,5.0,8.0,42,0.00,,,0.00,weatherlink.com 1.10,2013-03-14 20:51:00,
2013-03-14 16:06:00,69.7,45.0,30.33,SSE,151,4.0,7.0,42,0.00,,,0.00,weatherlink.com 1.10,2013-03-14 21:06:00,
2013-03-14 16:21:00,69.3,44.0,30.33,East,101,4.0,7.0,41,0.00,,,0.00,weatherlink.com 1.10,2013-03-14 21:21:00,
2013-03-14 16:36:00,69.4,45.0,30.32,South,177,4.0,10.0,41,0.00,,,0.00,weatherlink.com 1.10,2013-03-14 21:36:00,
2013-03-14 16:52:00,68.4,44.0,30.32,South,183,2.0,7.0,42,0.00,,,0.00,weatherlink.com 1.10,2013-03-14 21:52:00,
2013-03-14 17:07:00,67.3,44.0,30.32,SE,142,4.0,7.0,43,0.00,,,0.00,weatherlink.com 1.10,2013-03-14 22:07:00,
2013-03-14 17:22:00,67.7,44.0,30.32,SE,132,0.0,7.0,42,0.00,,,0.00,weatherlink.com 1.10,2013-03-14 22:22:00,
2013-03-14 17:37:00,67.0,44.0,30.32,SE,145,5.0,8.0,44,0.00,,,0.00,weatherlink.com 1.10,2013-03-14 22:37:00,
2013-03-14 17:52:00,67.1,44.0,30.31,South,184,1.0,7.0,43,0.00,,,0.00,weatherlink.com 1.10,2013-03-14 22:52:00,
2013-03-14 18:07:00,66.5,44.0,30.31,SSE,150,3.0,6.0,44,0.00,,,0.00,weatherlink.com 1.10,2013-03-14 23:07:00,
2013-03-14 18:22:00,65.7,44.0,30.31,SSW,197,3.0,6.0,46,0.00,,,0.00,weatherlink.com 1.10,2013-03-14 23:22:00,
2013-03-14 18:37:00,64.5,45.0,30.32,SSW,207,2.0,6.0,49,0.00,,,0.00,weatherlink.com 1.10,2013-03-14 23:37:00,
2013-03-14 18:52:00,63.1,44.0,30.31,SSE,160,0.0,7.0,50,0.00,,,0.00,weatherlink.com 1.10,2013-03-14 23:52:00,
2013-03-14 19:07:00,61.6,45.0,30.32,SSW,210,3.0,4.0,54,0.00,,,0.00,weatherlink.com 1.10,2013-03-15 00:07:00,
2013-03-14 19:22:00,59.7,45.0,30.31,SSW,193,1.0,3.0,58,0.00,,,0.00,weatherlink.com 1.10,2013-03-15 00:22:00,
2013-03-14 19:37:00,58.2,45.0,30.31,SW,221,0.0,3.0,61,0.00,,,0.00,weatherlink.com 1.10,2013-03-15 00:37:00,
2013-03-14 19:52:00,57.1,45.0,30.31,SSW,200,0.0,2.0,64,0.00,,,0.00,weatherlink.com 1.10,2013-03-15 00:52:00,
2013-03-14 20:07:00,56.0,45.0,30.31,SSW,200,0.0,2.0,66,0.00,,,0.00,weatherlink.com 1.10,2013-03-15 01:07:00,
2013-03-14 20:22:00,55.4,45.0,30.31,SSE,150,0.0,2.0,68,0.00,,,0.00,weatherlink.com 1.10,2013-03-15 01:22:00,
2013-03-14 20:37:00,54.7,45.0,30.31,SE,134,0.0,2.0,70,0.00,,,0.00,weatherlink.com 1.10,2013-03-15 01:37:00,
2013-03-14 20:52:00,54.2,45.0,30.31,South,191,1.0,3.0,72,0.00,,,0.00,weatherlink.com 1.10,2013-03-15 01:52:00,
2013-03-14 21:07:00,53.9,46.0,30.31,SSW,193,0.0,3.0,74,0.00,,,0.00,weatherlink.com 1.10,2013-03-15 02:07:00,
2013-03-14 21:22:00,53.4,46.0,30.31,SSE,168,0.0,2.0,75,0.00,,,0.00,weatherlink.com 1.10,2013-03-15 02:22:00,
2013-03-14 21:37:00,52.8,45.0,30.31,SSE,157,0.0,2.0,76,0.00,,,0.00,weatherlink.com 1.10,2013-03-15 02:37:00,
2013-03-14 21:52:00,52.1,45.0,30.32,SSE,157,0.0,0.0,78,0.00,,,0.00,weatherlink.com 1.10,2013-03-15 02:52:00,
2013-03-14 22:07:00,51.7,45.0,30.32,SSE,163,0.0,1.0,79,0.00,,,0.00,weatherlink.com 1.10,2013-03-15 03:07:00,
2013-03-14 22:22:00,51.6,45.0,30.31,South,190,0.0,0.0,79,0.00,,,0.00,weatherlink.com 1.10,2013-03-15 03:22:00,
2013-03-14 22:37:00,51.2,45.0,30.31,SSW,202,0.0,1.0,80,0.00,,,0.00,weatherlink.com 1.10,2013-03-15 03:37:00,
2013-03-14 22:52:00,51.1,45.0,30.31,SSE,162,0.0,1.0,81,0.00,,,0.00,weatherlink.com 1.10,2013-03-15 03:52:00,
2013-03-14 23:07:00,51.1,45.0,30.31,SSE,152,0.0,0.0,81,0.00,,,0.00,weatherlink.com 1.10,2013-03-15 04:07:00,
2013-03-14 23:22:00,50.8,46.0,30.31,SSE,158,0.0,0.0,82,0.00,,,0.00,weatherlink.com 1.10,2013-03-15 04:22:00,
2013-03-14 23:37:00,50.6,45.0,30.30,South,177,0.0,0.0,82,0.00,,,0.00,weatherlink.com 1.10,2013-03-15 04:37:00,
2013-03-14 23:52:00,50.3,45.0,30.30,South,188,0.0,0.0,83,0.00,,,0.00,weatherlink.com 1.10,2013-03-15 04:52:00,